FW3849 Weather Reports


time (UTC)temp
C
wind
direction
speed
KPH
gust
KPH
rain 1hr
cm
rain 24hr
cm
rain mn
cm
humidity
%
barometer
mb
20260506202011 30 6 6.4 16.1 0.00 0.00 0.00 11 1010.1
20260506201516 30 355 12.9 17.7 0.00 0.00 0.00 11 1010.2
20260506201011 30 312 8.0 19.3 0.00 0.00 0.00 11 1010.0
20260506200012 30 20 8.0 19.3 0.00 0.00 0.00 11 1010.1
20260506195512 30 46 6.4 20.9 0.00 0.00 0.00 11 1010.2
20260506195013 30 27 8.0 20.9 0.00 0.00 0.00 12 1010.2
20260506194516 30 3 6.4 17.7 0.00 0.00 0.00 11 1010.2
20260506194010 30 40 4.8 17.7 0.00 0.00 0.00 13 1010.2
20260506193508 30 71 8.0 22.5 0.00 0.00 0.00 14 1010.2
20260506193010 29 352 9.7 22.5 0.00 0.00 0.00 13 1010.4
20260506192511 29 27 8.0 20.9 0.00 0.00 0.00 14 1010.5
20260506192010 30 60 9.7 20.9 0.00 0.00 0.00 13 1010.5
20260506191507 29 297 9.7 16.1 0.00 0.00 0.00 14 1010.5
20260506191006 30 39 6.4 19.3 0.00 0.00 0.00 15 1010.6
20260506190006 29 4 6.4 17.7 0.00 0.00 0.00 17 1010.7
20260506185504 28 35 4.8 16.1 0.00 0.00 0.00 19 1010.9
20260506185004 28 66 11.3 16.1 0.00 0.00 0.00 17 1010.6
20260506184504 29 356 6.4 14.5 0.00 0.00 0.00 18 1010.9
20260506184005 29 27 8.0 19.3 0.00 0.00 0.00 20 1011.0
20260506183504 29 43 11.3 19.3 0.00 0.00 0.00 18 1011.1
20260506183004 29 25 9.7 17.7 0.00 0.00 0.00 19 1011.1
20260506182503 29 44 6.4 17.7 0.00 0.00 0.00 17 1011.2
20260506182004 29 6 6.4 16.1 0.00 0.00 0.00 18 1011.2
20260506181502 28 340 4.8 22.5 0.00 0.00 0.00 21 1011.2
20260506181059 28 25 12.9 22.5 0.00 0.00 0.00 22 1011.2
20260506180107 27 76 11.3 22.5 0.00 0.00 0.00 25 1011.3
20260506175557 27 52 9.7 16.1 0.00 0.00 0.00 25 1011.3
20260506175101 27 50 9.7 19.3 0.00 0.00 0.00 26 1011.3
20260506174558 27 56 11.3 19.3 0.00 0.00 0.00 26 1011.4
20260506174100 26 22 11.3 19.3 0.00 0.00 0.00 27 1011.5
20260506173558 27 63 11.3 19.3 0.00 0.00 0.00 25 1011.5
20260506173059 27 81 8.0 17.7 0.00 0.00 0.00 26 1011.5
20260506172557 27 345 6.4 20.9 0.00 0.00 0.00 27 1011.6
20260506172054 27 44 11.3 22.5 0.00 0.00 0.00 28 1011.7
20260506171558 26 58 9.7 22.5 0.00 0.00 0.00 29 1011.5
20260506171056 26 20 4.8 19.3 0.00 0.00 0.00 30 1011.5
20260506170105 26 77 8.0 12.9 0.00 0.00 0.00 30 1011.5
20260506165555 26 14 4.8 12.9 0.00 0.00 0.00 31 1011.5
20260506165055 26 34 4.8 12.9 0.00 0.00 0.00 32 1011.5
20260506164557 26 39 4.8 19.3 0.00 0.00 0.00 31 1011.3
20260506164053 26 47 11.3 19.3 0.00 0.00 0.00 32 1011.2
20260506163555 26 43 8.0 17.7 0.00 0.00 0.00 32 1011.3
20260506163111 26 27 6.4 19.3 0.00 0.00 0.00 33 1011.3
20260506162553 25 5 9.7 20.9 0.00 0.00 0.00 34 1011.3
20260506162054 25 53 12.9 22.5 0.00 0.00 0.00 35 1011.3
20260506161556 25 30 11.3 20.9 0.00 0.00 0.00 36 1011.2
20260506161052 25 39 12.9 20.9 0.00 0.00 0.00 36 1011.1
20260506160050 25 50 12.9 22.5 0.00 0.00 0.00 36 1011.0
20260506155552 25 41 11.3 20.9 0.00 0.00 0.00 36 1010.9
20260506155047 26 36 12.9 20.9 0.00 0.00 0.00 35 1010.8
20260506154606 26 44 8.0 17.7 0.00 0.00 0.00 34 1010.6
20260506154046 26 44 8.0 14.5 0.00 0.00 0.00 34 1010.6
20260506153544 26 21 6.4 16.1 0.00 0.00 0.00 34 1010.6
20260506153054 26 52 9.7 16.1 0.00 0.00 0.00 33 1010.6
20260506152543 26 62 8.0 14.5 0.00 0.00 0.00 33 1010.5
20260506152042 26 8 4.8 11.3 0.00 0.00 0.00 32 1010.4
20260506151541 26 337 4.8 11.3 0.00 0.00 0.00 31 1010.3
20260506151040 25 356 4.8 9.7 0.00 0.00 0.00 31 1010.3
20260506150040 25 43 3.2 6.4 0.00 0.00 0.00 32 1010.3
20260506145538 25 8 3.2 11.3 0.00 0.00 0.00 33 1010.3
20260506145037 25 4 3.2 11.3 0.00 0.00 0.00 33 1010.2
20260506144535 24 4 3.2 11.3 0.00 0.00 0.00 34 1010.2
20260506144034 23 32 4.8 9.7 0.00 0.00 0.00 32 1010.3
20260506143537 23 59 3.2 6.4 0.00 0.00 0.00 30 1010.3
20260506143045 23 150 1.6 4.8 0.00 0.00 0.00 31 1010.2
20260506142536 23 127 3.2 4.8 0.00 0.00 0.00 32 1010.1
20260506142031 23 127 1.6 4.8 0.00 0.00 0.00 33 1010.1
20260506141535 23 178 0.0 4.8 0.00 0.00 0.00 34 1010.1
20260506141034 23 162 3.2 6.4 0.00 0.00 0.00 34 1010.1
20260506140031 23 100 1.6 4.8 0.00 0.00 0.00 32 1010.2
20260506135529 23 93 3.2 4.8 0.00 0.00 0.00 32 1010.2
20260506135028 22 89 0.0 4.8 0.00 0.00 0.00 34 1010.1
20260506134527 22 107 0.0 4.8 0.00 0.00 0.00 35 1009.8
20260506134026 22 191 1.6 6.4 0.00 0.00 0.00 36 1009.8
20260506133525 21 178 0.0 6.4 0.00 0.00 0.00 37 1009.8
20260506133023 21 200 3.2 6.4 0.00 0.00 0.00 36 1009.8
20260506132524 21 139 3.2 6.4 0.00 0.00 0.00 36 1009.8
20260506132024 21 117 0.0 3.2 0.00 0.00 0.00 38 1009.9
20260506131522 20 223 0.0 6.4 0.00 0.00 0.00 39 1009.8
20260506131025 20 174 1.6 4.8 0.00 0.00 0.00 39 1009.7
20260506130624 20 202 0.0 3.2 0.00 0.00 0.00 42 1009.7
20260506130023 20 202 1.6 3.2 0.00 0.00 0.00 43 1009.6
20260506125522 19 202 1.6 4.8 0.00 0.00 0.00 43 1009.7
20260506125022 19 210 0.0 4.8 0.00 0.00 0.00 44 1009.6
20260506124522 19 212 3.2 6.4 0.00 0.00 0.00 45 1009.7
20260506124021 19 212 1.6 6.4 0.00 0.00 0.00 45 1009.8
20260506123520 19 351 0.0 4.8 0.00 0.00 0.00 45 1009.6
20260506123019 19 351 1.6 6.4 0.00 0.00 0.00 45 1009.4
20260506122520 19 351 3.2 12.9 0.00 0.00 0.00 45 1009.2
20260506122018 19 352 3.2 12.9 0.00 0.00 0.00 45 1009.1
20260506121517 19 327 1.6 9.7 0.00 0.00 0.00 44 1008.8
20260506121016 19 54 0.0 3.2 0.00 0.00 0.00 45 1008.4
20260506120017 19 54 1.6 4.8 0.00 0.00 0.00 44 1008.2
20260506115516 19 54 0.0 11.3 0.00 0.00 0.00 44 1008.2
20260506115017 19 53 6.4 11.3 0.00 0.00 0.00 44 1008.3
20260506114515 19 25 0.0 4.8 0.00 0.00 0.00 44 1008.3
20260506114015 19 25 1.6 4.8 0.00 0.00 0.00 44 1008.3
20260506113514 19 25 1.6 4.8 0.00 0.00 0.00 44 1008.2
20260506113014 19 1 1.6 4.8 0.00 0.00 0.00 44 1008.2
20260506112516 19 348 0.0 1.6 0.00 0.00 0.00 43 1008.1
20260506112013 19 348 0.0 3.2 0.00 0.00 0.00 43 1007.9
20260506111513 19 348 0.0 3.2 0.00 0.00 0.00 42 1008.0
20260506111011 20 356 1.6 8.0 0.00 0.00 0.00 40 1007.8
20260506110010 20 17 3.2 8.0 0.00 0.00 0.00 40 1007.6
20260506105508 20 10 4.8 9.7 0.00 0.00 0.00 36 1007.5
20260506105008 21 1 4.8 9.7 0.00 0.00 0.00 34 1007.6
20260506104506 21 326 4.8 9.7 0.00 0.00 0.00 33 1007.7
20260506104005 21 327 4.8 9.7 0.00 0.00 0.00 33 1007.8
20260506103504 21 351 3.2 8.0 0.00 0.00 0.00 32 1007.9
20260506103003 21 301 4.8 14.5 0.00 0.00 0.00 32 1007.8
20260506102502 21 333 6.4 16.1 0.00 0.00 0.00 31 1007.7
20260506102001 21 327 9.7 16.1 0.00 0.00 0.00 31 1007.8
20260506101500 21 344 8.0 16.1 0.00 0.00 0.00 31 1007.7
20260506101001 21 316 3.2 11.3 0.00 0.00 0.00 32 1007.7
20260506100001 21 316 4.8 11.3 0.00 0.00 0.00 32 1007.3
20260506095601 21 325 4.8 11.3 0.00 0.00 0.00 32 1007.3
20260506095503 21 331 6.4 11.3 0.00 0.00 0.00 32 1007.3
20260506095103 21 306 0.0 6.4 0.00 0.00 0.00 32 1007.5
20260506094627 21 306 0.0 8.0 0.00 0.00 0.00 32 1007.4
20260506094100 21 302 3.2 8.0 0.00 0.00 0.00 31 1007.2
20260506093600 21 338 3.2 8.0 0.00 0.00 0.00 30 1007.2
20260506093101 22 345 3.2 9.7 0.00 0.00 0.00 28 1007.0
20260506092600 21 2 3.2 11.3 0.00 0.00 0.00 28 1007.0
20260506092100 21 342 4.8 11.3 0.00 0.00 0.00 28 1007.1
20260506091600 21 225 0.0 6.4 0.00 0.00 0.00 28 1006.8
20260506091059 21 225 3.2 6.4 0.00 0.00 0.00 28 1006.7
20260506090701 21 227 3.2 6.4 0.00 0.00 0.00 28 1006.8
20260506090059 21 227 3.2 6.4 0.00 0.00 0.00 29 1006.8
20260506085559 21 228 4.8 6.4 0.00 0.00 0.00 29 1006.9
20260506085059 21 137 1.6 4.8 0.00 0.00 0.00 31 1006.9
20260506084602 21 135 0.0 3.2 0.00 0.00 0.00 31 1006.8
20260506084103 21 135 0.0 3.2 0.00 0.00 0.00 31 1007.0
20260506083558 21 135 1.6 3.2 0.00 0.00 0.00 31 1007.2
20260506083104 21 135 0.0 4.8 0.00 0.00 0.00 31 1007.2
20260506082602 21 135 1.6 4.8 0.00 0.00 0.00 31 1007.1
20260506082058 21 135 1.6 4.8 0.00 0.00 0.00 31 1007.0
20260506081558 21 135 1.6 3.2 0.00 0.00 0.00 31 1007.2
20260506081157 21 135 1.6 3.2 0.00 0.00 0.00 31 1007.2
20260506080658 21 135 1.6 3.2 0.00 0.00 0.00 31 1007.1
20260506073105 21 135 1.6 6.4 0.00 0.00 0.00 28 1007.2
20260506072558 21 135 1.6 6.4 0.00 0.00 0.00 27 1007.2
20260506072058 22 149 3.2 4.8 0.00 0.00 0.00 27 1007.8
20260506071558 21 224 0.0 3.2 0.00 0.00 0.00 27 1007.9
20260506071057 21 224 0.0 3.2 0.00 0.00 0.00 27 1007.8
20260506070658 22 224 0.0 4.8 0.00 0.00 0.00 27 1007.7
20260506062055 21 195 3.2 6.4 0.00 0.00 0.00 30 1007.2
20260506061557 21 195 1.6 8.0 0.00 0.00 0.00 29 1007.3
20260506061154 21 195 4.8 8.0 0.00 0.00 0.00 29 1007.6
20260506060653 21 191 4.8 8.0 0.00 0.00 0.00 29 1007.2
20260506051152 21 190 0.0 6.4 0.00 0.00 0.00 30 1007.4
20260506050653 21 193 0.0 3.2 0.00 0.00 0.00 30 1007.5
20260506045050 21 193 1.6 3.2 0.00 0.00 0.00 28 1006.8
20260506044553 21 193 1.6 3.2 0.00 0.00 0.00 28 1007.1
20260506044050 22 193 0.0 0.0 0.00 0.00 0.00 29 1007.1
20260506043650 22 193 0.0 0.0 0.00 0.00 0.00 29 1007.1
20260506043050 22 193 0.0 0.0 0.00 0.00 0.00 28 1007.0
20260506042550 22 193 0.0 0.0 0.00 0.00 0.00 28 1007.0
20260506042051 22 193 0.0 0.0 0.00 0.00 0.00 27 1007.0
20260506041550 22 193 0.0 4.8 0.00 0.00 0.00 27 1006.9
20260506041049 22 193 1.6 4.8 0.00 0.00 0.00 28 1007.3
20260506040649 22 141 1.6 4.8 0.00 0.00 0.00 28 1007.3
20260506040059 22 141 1.6 4.8 0.00 0.00 0.00 28 1006.7
20260506035551 22 139 3.2 4.8 0.00 0.00 0.00 27 1006.9
20260506035050 22 135 3.2 4.8 0.00 0.00 0.00 26 1006.9
20260506034603 22 134 0.0 3.2 0.00 0.00 0.00 26 1006.8
20260506034049 22 134 0.0 3.2 0.00 0.00 0.00 27 1006.7
20260506033549 22 133 1.6 3.2 0.00 0.00 0.00 26 1006.7
20260506033049 22 133 0.0 4.8 0.00 0.00 0.00 26 1006.6
20260506032549 23 133 1.6 4.8 0.00 0.00 0.00 25 1006.6
20260506032051 23 134 1.6 3.2 0.00 0.00 0.00 25 1006.5
20260506031558 23 135 0.0 3.2 0.00 0.00 0.00 24 1006.5
20260506031054 23 135 0.0 3.2 0.00 0.00 0.00 23 1006.4
20260506030549 23 135 1.6 4.8 0.00 0.00 0.00 23 1006.5
20260506030048 23 135 1.6 4.8 0.00 0.00 0.00 22 1006.5
20260506025548 23 135 0.0 3.2 0.00 0.00 0.00 23 1006.3
20260506025048 24 135 0.0 3.2 0.00 0.00 0.00 23 1006.5
20260506024548 24 135 1.6 3.2 0.00 0.00 0.00 22 1006.4
20260506024048 25 135 1.6 3.2 0.00 0.00 0.00 21 1006.4
20260506023549 25 135 0.0 8.0 0.00 0.00 0.00 20 1006.5
20260506023048 25 135 3.2 8.0 0.00 0.00 0.00 20 1006.4
20260506022547 25 351 0.0 3.2 0.00 0.00 0.00 18 1006.2
20260506022046 25 351 0.0 4.8 0.00 0.00 0.00 17 1006.2
20260506021550 25 351 0.0 4.8 0.00 0.00 0.00 17 1006.0
20260506021047 26 351 1.6 4.8 0.00 0.00 0.00 17 1006.1
20260506020645 26 351 0.0 3.2 0.00 0.00 0.00 17 1006.1
20260506020047 26 351 0.0 3.2 0.00 0.00 0.00 16 1006.2
20260506015548 26 351 1.6 3.2 0.00 0.00 0.00 15 1006.2
20260506015048 26 351 1.6 4.8 0.00 0.00 0.00 15 1005.9
20260506014546 27 351 1.6 6.4 0.00 0.00 0.00 14 1005.8
20260506014050 27 351 1.6 6.4 0.00 0.00 0.00 13 1006.0
20260506013546 27 349 1.6 6.4 0.00 0.00 0.00 13 1006.0
20260506013047 27 358 3.2 8.0 0.00 0.00 0.00 13 1005.9
20260506012546 27 352 3.2 9.7 0.00 0.00 0.00 12 1005.9
20260506012046 27 341 4.8 8.0 0.00 0.00 0.00 12 1006.0
20260506011545 27 360 4.8 8.0 0.00 0.00 0.00 12 1005.9
20260506011045 28 358 3.2 9.7 0.00 0.00 0.00 11 1005.8
20260506010645 28 5 4.8 9.7 0.00 0.00 0.00 11 1005.7
20260506010045 28 4 4.8 9.7 0.00 0.00 0.00 11 1005.7
20260506005543 28 17 4.8 12.9 0.00 0.00 0.00 11 1005.5
20260506005043 28 335 4.8 16.1 0.00 0.00 0.00 10 1005.5
20260506004542 28 355 8.0 16.1 0.00 0.00 0.00 10 1005.4
20260506004042 29 353 6.4 24.1 0.00 0.00 0.00 10 1005.3
20260506003543 29 348 9.7 24.1 0.00 0.00 0.00 9 1005.3
20260506003043 29 9 8.0 19.3 0.00 0.00 0.00 9 1005.2
20260506002542 30 343 8.0 20.9 0.00 0.00 0.00 9 1005.2
20260506002042 30 7 11.3 20.9 0.00 0.00 0.00 9 1005.2
20260506001542 30 32 8.0 19.3 0.00 0.00 0.00 8 1005.1
20260506001041 31 27 9.7 24.1 0.00 0.00 0.00 7 1005.1
20260506000644 31 330 6.4 16.1 0.00 0.00 0.00 9 1005.0
20260506000042 31 349 8.0 16.1 0.00 0.00 0.00 9 1005.0
20260505235541 31 353 4.8 14.5 0.00 0.00 0.00 11 1005.1
20260505235041 31 20 3.2 16.1 0.00 0.00 0.00 11 1005.1
20260505234547 31 10 8.0 17.7 0.00 0.00 0.00 11 1005.1
20260505234144 31 13 9.7 19.3 0.00 0.00 0.00 10 1005.1
20260505233540 31 356 6.4 16.1 0.00 0.00 0.00 11 1005.0
20260505233042 31 356 8.0 16.1 0.00 0.00 0.00 10 1004.7
20260505232540 31 342 9.7 17.7 0.00 0.00 0.00 10 1004.9
20260505232041 31 347 8.0 17.7 0.00 0.00 0.00 10 1004.9
20260505231547 31 2 8.0 16.1 0.00 0.00 0.00 10 1005.0
20260505231039 31 336 6.4 16.1 0.00 0.00 0.00 9 1004.9
20260505230639 32 10 4.8 16.1 0.00 0.00 0.00 10 1005.0
20260505230039 32 325 8.0 16.1 0.00 0.00 0.00 9 1005.0
20260505225539 32 5 6.4 22.5 0.00 0.00 0.00 10 1004.9
20260505225040 32 5 4.8 22.5 0.00 0.00 0.00 9 1005.1
20260505224538 32 2 6.4 16.1 0.00 0.00 0.00 9 1005.0
20260505224038 32 313 9.7 19.3 0.00 0.00 0.00 9 1005.0
20260505223538 32 316 9.7 20.9 0.00 0.00 0.00 9 1005.0
20260505223048 32 295 8.0 20.9 0.00 0.00 0.00 8 1005.1
20260505222537 32 35 9.7 20.9 0.00 0.00 0.00 9 1005.2
20260505222038 32 336 4.8 17.7 0.00 0.00 0.00 8 1005.1
20260505221537 32 325 9.7 22.5 0.00 0.00 0.00 9 1005.1
20260505221036 32 2 11.3 22.5 0.00 0.00 0.00 8 1005.1
20260505220637 32 29 8.0 22.5 0.00 0.00 0.00 8 1005.1
20260505220042 32 321 9.7 22.5 0.00 0.00 0.00 8 1005.3
20260505215538 32 325 12.9 22.5 0.00 0.00 0.00 8 1005.4
20260505215038 33 360 9.7 25.7 0.00 0.00 0.00 8 1005.4
20260505214547 33 345 9.7 25.7 0.00 0.00 0.00 7 1005.5
20260505214037 33 306 11.3 24.1 0.00 0.00 0.00 8 1005.5
20260505213536 32 358 6.4 22.5 0.00 0.00 0.00 8 1005.6
20260505213038 32 323 14.5 25.7 0.00 0.00 0.00 8 1005.7
20260505212536 33 304 12.9 24.1 0.00 0.00 0.00 8 1005.6
20260505212035 33 351 9.7 24.1 0.00 0.00 0.00 8 1005.8
20260505211536 33 339 11.3 22.5 0.00 0.00 0.00 8 1005.8
20260505211038 33 338 11.3 30.6 0.00 0.00 0.00 7 1005.8
20260505210635 33 358 11.3 30.6 0.00 0.00 0.00 8 1005.8
20260505210034 33 340 12.9 30.6 0.00 0.00 0.00 8 1005.9
20260505205533 33 310 11.3 22.5 0.00 0.00 0.00 8 1005.8
20260505205032 33 331 9.7 24.1 0.00 0.00 0.00 8 1005.9
20260505204535 32 337 11.3 24.1 0.00 0.00 0.00 9 1006.0
20260505204030 32 2 9.7 20.9 0.00 0.00 0.00 9 1006.1
20260505203530 32 264 12.9 22.5 0.00 0.00 0.00 9 1006.0
20260505203032 32 312 9.7 22.5 0.00 0.00 0.00 8 1006.2
20260505202530 33 338 11.3 24.1 0.00 0.00 0.00 8 1006.2